User: anonymous   Login
Location: Pensacola
(30.4142°N, 87.2155°W)
Time: 00:19:26
(UTC-05:00)
Language:

DIWATA 2B (PO-101) - Orbit

View from above orbital plane
View from above orbital plane
View from above satellite
View from above satellite

Ground track
Ground track

The orbit data is extracted from the following two-line orbital elements,

1 43678U 18084H   24170.88053395  .00001208  00000-0  11513-3 0  9999
2 43678  98.0716 328.9181 0009711  32.6901 327.4918 14.95318534307177
Epoch (UTC): 18 June 2024 21:07:58
Eccentricity: 0.0009711
inclination: 98.0716°
perigee height: 574 km
apogee height: 588 km
right ascension of ascending node: 328.9181°
argument of perigee: 32.6901°
revolutions per day: 14.95318534
mean anomaly at epoch: 327.4918°
orbit number at epoch: 30717

The dashed part of the orbit path shows where the satellite is in the earth's shadow,  

DLR